When you browse on this site, cookies collect data to enhance your experience and personalize the content and advertising you see.
Visit our Privacy Policy to learn more. By continuing to use the site, you agree to this use of cookies and data.
  • In France
  • List of Countries
  • For 7 days
  • Water Temperature
  • Satellite Maps
  • Weather Map
  • Weather Widgets
  • user-avatar
    Login

    Hourly Weather Ljubljana

    Today, 18 June, Tuesday

    Time Temperature Precipitation Wind Pressure Humidity
    00:00 +13°C° 0 mm 1 mps 669 mmHg 93%
    01:00 +13°C° 0 mm 1 mps 669 mmHg 93%
    02:00 +13°C° 0 mm 1 mps 669 mmHg 93%
    03:00 +12°C° 0 mm 1 mps 668 mmHg 94%
    04:00 +12°C° 0 mm 1 mps 668 mmHg 94%
    05:00 +12°C° 0 mm 0 mps 668 mmHg 92%
    06:00 +13°C° 0 mm 0 mps 669 mmHg 89%
    07:00 +14°C° 0 mm 0 mps 669 mmHg 87%
    08:00 +18°C° 0.2 mm 1 mps 670 mmHg 80%
    09:00 +20°C° 0.2 mm 1 mps 670 mmHg 73%
    10:00 +21°C° 0.2 mm 1 mps 670 mmHg 66%
    11:00 +22°C° 0.9 mm 1 mps 670 mmHg 68%
    12:00 +22°C° 0.9 mm 1 mps 670 mmHg 70%
    13:00 +22°C° 0.9 mm 1 mps 670 mmHg 72%
    14:00 +22°C° 0.8 mm 1 mps 669 mmHg 73%
    15:00 +21°C° 0.8 mm 1 mps 669 mmHg 75%
    16:00 +21°C° 0.8 mm 1 mps 669 mmHg 76%
    17:00 +20°C° 0.3 mm 1 mps 668 mmHg 80%
    18:00 +19°C° 0.3 mm 1 mps 668 mmHg 85%
    19:00 +16°C° 0.3 mm 0 mps 668 mmHg 89%
    20:00 +16°C° 0.1 mm 1 mps 668 mmHg 91%
    21:00 +15°C° 0.1 mm 1 mps 667 mmHg 92%
    22:00 +14°C° 0.1 mm 1 mps 667 mmHg 94%
    23:00 +12°C° 0 mm 0 mps 667 mmHg 94%

    Tomorrow, 19 June, Wednesday

    Time Temperature Precipitation Wind Pressure Humidity
    00:00 +12°C° 0 mm 0 mps 667 mmHg 93%
    01:00 +12°C° 0 mm 0 mps 667 mmHg 93%
    02:00 +11°C° 0 mm 0 mps 667 mmHg 93%
    03:00 +11°C° 0 mm 0 mps 666 mmHg 93%
    04:00 +11°C° 0 mm 0 mps 666 mmHg 94%
    05:00 +13°C° 0 mm 0 mps 667 mmHg 90%
    06:00 +14°C° 0 mm 0 mps 667 mmHg 87%
    07:00 +16°C° 0 mm 0 mps 668 mmHg 84%
    08:00 +18°C° 0.1 mm 0 mps 668 mmHg 76%
    09:00 +20°C° 0.1 mm 0 mps 668 mmHg 67%
    10:00 +24°C° 0.1 mm 1 mps 669 mmHg 59%
    11:00 +25°C° 0.5 mm 1 mps 669 mmHg 57%
    12:00 +25°C° 0.5 mm 1 mps 669 mmHg 55%
    13:00 +26°C° 0.5 mm 1 mps 669 mmHg 53%
    14:00 +26°C° 0.4 mm 1 mps 668 mmHg 53%
    15:00 +25°C° 0.4 mm 1 mps 668 mmHg 53%
    16:00 +25°C° 0.4 mm 1 mps 668 mmHg 53%
    17:00 +23°C° 0.6 mm 1 mps 667 mmHg 63%
    18:00 +21°C° 0.6 mm 1 mps 667 mmHg 74%
    19:00 +19°C° 0.6 mm 1 mps 667 mmHg 85%
    20:00 +18°C° 0.4 mm 1 mps 666 mmHg 87%
    21:00 +16°C° 0.4 mm 1 mps 666 mmHg 90%
    22:00 +14°C° 0.4 mm 1 mps 666 mmHg 93%
    23:00 +14°C° 0.1 mm 1 mps 666 mmHg 93%

    Day after tomorrow, 20 June, Thursday

    Time Temperature Precipitation Wind Pressure Humidity
    00:00 +13°C° 0.1 mm 1 mps 666 mmHg 93%
    01:00 +13°C° 0.1 mm 1 mps 666 mmHg 93%
    02:00 +12°C° 0 mm 1 mps 666 mmHg 93%
    03:00 +12°C° 0 mm 1 mps 665 mmHg 93%
    04:00 +12°C° 0 mm 1 mps 665 mmHg 93%
    05:00 +12°C° 0 mm 0 mps 666 mmHg 90%
    06:00 +14°C° 0 mm 0 mps 666 mmHg 87%
    07:00 +15°C° 0 mm 0 mps 667 mmHg 84%
    08:00 +18°C° 0.2 mm 0 mps 667 mmHg 76%
    09:00 +20°C° 0.2 mm 0 mps 668 mmHg 68%
    10:00 +22°C° 0.2 mm 0 mps 668 mmHg 59%
    11:00 +25°C° 0.2 mm 1 mps 668 mmHg 55%
    12:00 +26°C° 0.2 mm 1 mps 668 mmHg 50%
    13:00 +27°C° 0.2 mm 1 mps 668 mmHg 45%
    14:00 +26°C° 0.2 mm 1 mps 668 mmHg 48%
    15:00 +25°C° 0.2 mm 2 mps 667 mmHg 52%
    16:00 +25°C° 0.2 mm 2 mps 667 mmHg 55%
    17:00 +23°C° 0.1 mm 2 mps 666 mmHg 63%
    18:00 +20°C° 0.1 mm 2 mps 666 mmHg 72%
    19:00 +20°C° 0.1 mm 1 mps 666 mmHg 80%
    20:00 +18°C° 0 mm 1 mps 666 mmHg 84%
    21:00 +15°C° 0 mm 1 mps 666 mmHg 88%
    22:00 +14°C° 0 mm 1 mps 666 mmHg 92%
    23:00 +13°C° 0 mm 1 mps 666 mmHg 90%

    21 June, Friday

    Time Temperature Precipitation Wind Pressure Humidity
    00:00 +13°C° 0 mm 1 mps 666 mmHg 89%
    01:00 +13°C° 0 mm 1 mps 666 mmHg 87%
    02:00 +12°C° 0 mm 1 mps 666 mmHg 88%
    03:00 +12°C° 0 mm 1 mps 666 mmHg 89%
    04:00 +12°C° 0 mm 1 mps 666 mmHg 90%
    05:00 +14°C° 0 mm 1 mps 667 mmHg 85%
    06:00 +14°C° 0 mm 0 mps 667 mmHg 81%
    07:00 +16°C° 0 mm 0 mps 668 mmHg 76%
    08:00 +17°C° 0.4 mm 0 mps 668 mmHg 74%
    09:00 +21°C° 0.4 mm 1 mps 669 mmHg 71%
    10:00 +22°C° 0.4 mm 1 mps 669 mmHg 69%
    11:00 +22°C° 0.7 mm 1 mps 669 mmHg 69%
    12:00 +23°C° 0.7 mm 1 mps 669 mmHg 69%
    13:00 +23°C° 0.7 mm 1 mps 669 mmHg 70%
    14:00 +23°C° 0.5 mm 1 mps 669 mmHg 64%
    15:00 +24°C° 0.5 mm 1 mps 669 mmHg 58%
    16:00 +24°C° 0.5 mm 1 mps 669 mmHg 53%
    17:00 +22°C° 0.2 mm 1 mps 669 mmHg 62%
    18:00 +19°C° 0.2 mm 0 mps 669 mmHg 71%
    19:00 +17°C° 0.2 mm 0 mps 668 mmHg 80%
    20:00 +16°C° 0.2 mm 0 mps 668 mmHg 82%
    21:00 +14°C° 0.2 mm 0 mps 668 mmHg 84%
    22:00 +13°C° 0.2 mm 0 mps 668 mmHg 85%
    23:00 +13°C° 0.1 mm 0 mps 668 mmHg 88%

    22 June, Saturday

    Time Temperature Precipitation Wind Pressure Humidity
    00:00 +12°C° 0.1 mm 0 mps 668 mmHg 90%
    01:00 +12°C° 0.1 mm 0 mps 668 mmHg 92%
    02:00 +11°C° 0.1 mm 0 mps 668 mmHg 93%
    03:00 +11°C° 0.1 mm 0 mps 668 mmHg 94%
    04:00 +11°C° 0.1 mm 0 mps 668 mmHg 95%
    05:00 +12°C° 0.2 mm 0 mps 668 mmHg 94%
    06:00 +13°C° 0.2 mm 0 mps 669 mmHg 93%
    07:00 +15°C° 0.2 mm 1 mps 669 mmHg 92%
    08:00 +16°C° 0.5 mm 1 mps 670 mmHg 88%
    09:00 +18°C° 0.5 mm 1 mps 670 mmHg 84%
    10:00 +20°C° 0.5 mm 1 mps 670 mmHg 80%
    11:00 +20°C° 1.4 mm 1 mps 670 mmHg 82%
    12:00 +20°C° 1.4 mm 1 mps 670 mmHg 84%
    13:00 +20°C° 1.4 mm 1 mps 670 mmHg 86%
    14:00 +20°C° 1.4 mm 1 mps 670 mmHg 87%
    15:00 +20°C° 1.4 mm 1 mps 669 mmHg 87%
    16:00 +20°C° 1.4 mm 1 mps 669 mmHg 88%
    17:00 +20°C° 0.6 mm 1 mps 669 mmHg 89%
    18:00 +17°C° 0.6 mm 0 mps 669 mmHg 91%
    19:00 +16°C° 0.6 mm 0 mps 669 mmHg 93%
    20:00 +15°C° 0.1 mm 0 mps 669 mmHg 93%
    21:00 +14°C° 0.1 mm 0 mps 669 mmHg 93%
    22:00 +14°C° 0.1 mm 1 mps 669 mmHg 93%
    23:00 +12°C° 0 mm 0 mps 668 mmHg 93%

    23 June, Sunday

    Time Temperature Precipitation Wind Pressure Humidity
    00:00 +12°C° 0 mm 0 mps 668 mmHg 94%
    01:00 +12°C° 0 mm 0 mps 668 mmHg 94%
    02:00 +11°C° 0 mm 0 mps 668 mmHg 94%
    03:00 +11°C° 0 mm 0 mps 668 mmHg 95%
    04:00 +11°C° 0 mm 0 mps 668 mmHg 95%
    05:00 +12°C° 0 mm 0 mps 668 mmHg 93%
    06:00 +14°C° 0 mm 0 mps 669 mmHg 92%
    07:00 +15°C° 0 mm 0 mps 670 mmHg 90%
    08:00 +17°C° 0 mm 0 mps 670 mmHg 82%
    09:00 +19°C° 0 mm 0 mps 671 mmHg 74%
    10:00 +23°C° 0 mm 1 mps 671 mmHg 66%
    11:00 +24°C° 0.1 mm 1 mps 671 mmHg 62%
    12:00 +25°C° 0.1 mm 1 mps 671 mmHg 58%
    13:00 +26°C° 0.1 mm 1 mps 672 mmHg 54%
    14:00 +26°C° 0.1 mm 1 mps 671 mmHg 52%
    15:00 +26°C° 0.1 mm 1 mps 671 mmHg 50%
    16:00 +26°C° 0.1 mm 1 mps 671 mmHg 48%
    17:00 +24°C° 0 mm 1 mps 671 mmHg 58%
    18:00 +22°C° 0 mm 1 mps 671 mmHg 68%
    19:00 +21°C° 0 mm 1 mps 671 mmHg 78%
    20:00 +19°C° 0.1 mm 1 mps 671 mmHg 81%
    21:00 +18°C° 0.1 mm 1 mps 671 mmHg 83%
    22:00 +16°C° 0.1 mm 1 mps 671 mmHg 86%
    23:00 +15°C° 0 mm 1 mps 671 mmHg 87%
    Show more